�N����,����,�~����,�C��,���x,�C��,����,���ϕ���,�ő�u�ԕ���,�ő厞����,���˗�,�I�_���x,�n�����x,�ő啗���N��,DTYPE
"23/09/14","00:10",0.0,25.2,85.5,1006.9,335.5,1.0,1.9,336.0,0.00,22.6,25.5,"00:07:12",1
"23/09/14","00:20",0.0,25.3,85.7,1006.7,341.8,0.8,1.2,332.8,0.00,22.8,25.5,"00:14:56",1
"23/09/14","00:30",0.0,25.0,85.9,1007.1,303.1,0.2,0.8,337.0,0.00,22.5,25.6,"00:20:08",1
"23/09/14","00:40",0.0,24.9,86.2,1006.9,317.7,0.6,1.0,317.4,0.00,22.5,25.5,"00:36:48",1
"23/09/14","00:50",0.0,24.8,86.5,1006.7,313.5,0.7,1.2,309.1,0.00,22.4,25.3,"00:44:00",1
"23/09/14","01:00",0.0,24.7,86.7,1006.9,333.2,0.7,1.3,312.6,0.00,22.4,25.5,"00:51:36",1
"23/09/14","01:10",0.0,24.5,86.8,1006.9,329.3,0.6,1.0,326.8,0.00,22.2,25.3,"01:08:24",1
"23/09/14","01:20",0.0,24.3,87.2,1006.7,315.7,0.6,0.8,311.9,0.00,22.1,25.5,"01:17:12",1
"23/09/14","01:30",0.0,24.1,87.5,1006.4,315.4,0.3,0.9,330.2,0.00,21.9,25.4,"01:29:12",1
"23/09/14","01:40",0.0,24.1,87.8,1006.7,340.0,0.6,1.0,332.4,0.00,22.0,25.3,"01:30:48",1
"23/09/14","01:50",0.0,23.8,88.2,1006.9,274.3,0.5,1.0,314.6,0.00,21.8,25.2,"01:47:28",1
"23/09/14","02:00",0.0,23.8,88.7,1006.7,325.0,0.8,1.6,337.0,0.00,21.9,25.3,"01:59:44",1
"23/09/14","02:10",0.0,23.8,88.9,1006.9,331.7,1.0,1.6,339.5,0.00,21.9,25.2,"02:02:32",1
"23/09/14","02:20",0.0,23.6,89.1,1006.7,307.7,0.7,1.1,330.0,0.00,21.7,25.3,"02:14:32",1
"23/09/14","02:30",0.0,23.4,89.4,1006.7,290.1,0.7,1.0,301.9,0.00,21.6,25.2,"02:23:44",1
"23/09/14","02:40",0.0,23.4,89.7,1006.4,297.4,0.8,1.3,312.3,0.00,21.7,25.2,"02:39:36",1
"23/09/14","02:50",0.0,23.4,89.9,1006.7,324.8,1.0,1.7,315.2,0.00,21.7,25.4,"02:40:48",1
"23/09/14","03:00",0.0,23.3,90.1,1006.2,328.5,1.0,2.0,336.2,0.00,21.6,25.2,"02:50:16",1
"23/09/14","03:10",0.0,23.2,90.2,1006.7,325.7,1.0,1.2,312.6,0.00,21.5,25.1,"03:04:16",1
"23/09/14","03:20",0.0,22.9,90.4,1006.4,293.7,0.3,0.9,302.8,0.00,21.3,25.0,"03:10:40",1
"23/09/14","03:30",0.0,22.6,90.7,1006.4,306.8,0.7,1.2,308.6,0.00,21.0,25.0,"03:29:28",1
"23/09/14","03:40",0.0,22.7,90.8,1006.7,316.7,1.0,1.7,326.1,0.00,21.2,25.0,"03:34:48",1
"23/09/14","03:50",0.0,22.7,91.0,1006.4,302.0,0.8,1.4,309.4,0.00,21.2,25.1,"03:40:32",1
"23/09/14","04:00",0.0,22.6,91.3,1006.7,320.7,0.8,1.4,313.7,0.00,21.1,24.9,"03:57:20",1
"23/09/14","04:10",0.0,22.6,91.6,1006.7,310.4,1.1,1.4,303.7,0.00,21.2,24.9,"04:08:32",1
"23/09/14","04:20",0.0,22.5,91.8,1006.4,315.1,1.0,1.3,333.9,0.00,21.1,24.9,"04:10:48",1
"23/09/14","04:30",0.0,22.5,92.1,1006.2,289.0,0.7,1.7,313.8,0.00,21.2,24.9,"04:29:20",1
"23/09/14","04:40",0.0,22.6,92.3,1006.2,305.3,1.1,2.0,328.6,0.00,21.3,24.8,"04:30:02",1
"23/09/14","04:50",0.0,22.5,92.3,1006.4,304.6,1.0,1.6,307.4,0.00,21.2,25.0,"04:41:04",1
"23/09/14","05:00",0.0,22.3,92.6,1006.7,302.7,0.7,1.1,319.5,0.00,21.1,24.9,"04:53:44",1
"23/09/14","05:10",0.0,22.4,92.7,1006.2,308.1,1.1,1.4,307.9,0.00,21.2,24.8,"05:04:32",1
"23/09/14","05:20",0.0,22.3,92.9,1006.9,294.6,0.7,1.1,300.0,0.00,21.1,24.9,"05:18:56",1
"23/09/14","05:30",0.0,22.5,93.1,1006.7,309.3,1.1,1.3,307.0,0.00,21.4,24.6,"05:20:56",1
"23/09/14","05:40",0.0,22.4,93.2,1006.9,297.5,0.8,1.2,323.5,0.00,21.3,24.6,"05:30:56",1
"23/09/14","05:50",0.0,22.4,93.3,1006.9,295.4,0.8,1.2,314.4,0.00,21.3,24.7,"05:43:04",1
"23/09/14","06:00",0.0,22.6,93.5,1007.1,303.4,1.0,1.4,322.7,0.00,21.5,24.7,"05:57:36",1
"23/09/14","06:10",0.0,22.9,93.6,1006.9,292.6,0.6,1.3,293.0,0.00,21.9,24.7,"06:04:24",1
"23/09/14","06:20",0.0,23.2,93.6,1006.9,275.0,0.5,0.9,270.9,0.01,22.2,24.6,"06:16:24",1
"23/09/14","06:30",0.0,23.5,93.6,1007.4,311.8,0.5,1.1,358.6,0.00,22.4,24.7,"06:28:00",1
"23/09/14","06:40",0.0,23.5,93.6,1007.4,329.0,0.8,1.3,339.9,0.00,22.4,24.5,"06:30:32",1
"23/09/14","06:50",0.0,23.7,93.7,1007.4,330.1,0.7,1.6,340.5,0.01,22.7,24.2,"06:46:16",1
"23/09/14","07:00",0.0,23.9,93.7,1007.4,326.7,0.6,1.1,329.7,0.02,22.9,24.6,"06:52:40",1
"23/09/14","07:10",0.0,24.0,93.7,1007.1,333.8,0.7,1.2,349.8,0.03,23.0,24.7,"07:03:28",1
"23/09/14","07:20",0.0,24.7,93.7,1007.1,301.0,0.5,0.9,307.3,0.07,23.7,24.4,"07:16:40",1
"23/09/14","07:30",0.0,24.9,93.7,1007.1,297.3,0.7,1.4,337.7,0.11,23.9,24.5,"07:26:40",1
"23/09/14","07:40",0.0,25.4,93.0,1007.4,307.4,0.7,1.4,347.3,0.18,24.2,24.6,"07:35:04",1
"23/09/14","07:50",0.0,26.1,91.2,1007.6,241.4,0.7,2.4,235.5,0.25,24.6,24.6,"07:44:00",1
"23/09/14","08:00",0.0,27.2,88.1,1007.1,76.8,0.3,1.2,81.6,0.18,25.1,24.7,"07:57:44",1
"23/09/14","08:10",0.0,28.4,83.1,1007.4,101.1,0.3,1.1,58.3,0.21,25.3,24.8,"08:08:16",1
"23/09/14","08:20",0.0,29.5,74.7,1007.8,73.2,0.7,1.8,127.5,0.23,24.6,24.5,"08:17:44",1
"23/09/14","08:30",0.0,29.2,71.9,1008.1,153.8,1.1,2.0,217.6,0.22,23.6,24.8,"08:24:24",1
"23/09/14","08:40",0.0,29.3,71.5,1007.8,162.0,1.0,1.9,210.1,0.25,23.7,24.7,"08:37:04",1
"23/09/14","08:50",0.0,29.3,71.0,1007.8,189.8,1.1,2.8,205.2,0.28,23.5,24.9,"08:45:36",1
"23/09/14","09:00",0.0,28.9,70.6,1008.3,202.6,1.6,3.2,203.6,0.23,23.1,24.9,"08:58:40",1
"23/09/14","09:10",0.0,29.4,72.6,1008.6,175.9,1.2,2.6,227.1,0.25,24.0,24.9,"09:00:48",1
"23/09/14","09:20",0.0,29.5,70.8,1008.8,173.6,1.3,2.6,184.8,0.28,23.7,24.7,"09:15:28",1
"23/09/14","09:30",0.0,30.6,69.1,1009.3,177.6,0.8,2.2,220.6,0.45,24.3,24.9,"09:22:48",1
"23/09/14","09:40",0.0,30.9,65.7,1009.3,114.4,0.7,2.4,134.4,0.25,23.8,24.9,"09:30:40",1
"23/09/14","09:50",0.0,31.4,65.8,1009.5,135.1,0.8,1.9,93.0,0.39,24.3,25.1,"09:43:52",1
"23/09/14","10:00",0.0,31.5,63.9,1009.7,118.6,0.8,2.6,126.1,0.36,23.9,24.9,"09:55:04",1
"23/09/14","10:10",0.0,31.8,62.9,1010.2,183.1,1.2,2.4,173.8,0.39,23.9,25.0,"10:09:04",1
"23/09/14","10:20",0.0,31.4,64.3,1009.5,152.3,1.0,2.2,185.9,0.23,23.9,25.3,"10:16:00",1
"23/09/14","10:30",0.0,31.2,63.0,1009.3,124.9,1.0,1.8,126.2,0.23,23.4,25.3,"10:29:36",1
"23/09/14","10:40",0.0,31.6,64.5,1009.3,145.4,0.6,1.7,119.9,0.24,24.1,25.4,"10:38:48",1
"23/09/14","10:50",0.0,31.7,62.4,1009.0,21.7,0.7,2.8,214.9,0.27,23.7,25.4,"10:41:28",1
"23/09/14","11:00",0.0,31.1,63.4,1009.0,329.4,1.2,2.6,352.5,0.20,23.4,25.3,"10:50:40",1
"23/09/14","11:10",0.0,30.7,65.1,1008.6,310.2,1.1,2.7,237.1,0.13,23.4,25.5,"11:03:12",1
"23/09/14","11:20",0.0,30.8,65.8,1008.3,281.4,0.8,1.9,335.2,0.18,23.7,25.7,"11:15:20",1
"23/09/14","11:30",0.0,31.0,63.6,1008.1,267.1,1.0,3.3,198.3,0.24,23.3,25.6,"11:27:20",1
"23/09/14","11:40",0.0,31.0,63.1,1008.6,240.1,1.3,4.3,242.8,0.17,23.2,25.7,"11:36:24",1
"23/09/14","11:50",0.0,30.5,65.1,1008.1,250.0,1.6,3.9,220.0,0.09,23.2,25.6,"11:43:44",1
"23/09/14","12:00",0.0,30.4,66.4,1007.6,321.4,1.0,2.6,331.1,0.10,23.5,25.6,"11:57:12",1
"23/09/14","12:10",0.0,30.1,67.0,1007.1,330.1,0.8,1.7,330.9,0.07,23.3,25.5,"12:05:44",1
"23/09/14","12:20",0.0,30.5,67.3,1006.9,325.4,0.7,1.9,358.3,0.10,23.8,25.7,"12:12:00",1
"23/09/14","12:30",0.0,30.5,67.3,1006.9,342.5,1.2,2.7,1.4,0.12,23.8,25.7,"12:28:16",1
"23/09/14","12:40",0.0,30.5,66.6,1006.7,316.7,1.0,2.6,348.9,0.16,23.6,25.7,"12:32:24",1
"23/09/14","12:50",0.0,30.8,65.6,1007.4,332.2,1.1,3.7,317.0,0.23,23.7,25.7,"12:42:40",1
"23/09/14","13:00",0.0,30.8,65.1,1007.4,310.8,1.0,3.1,348.9,0.21,23.5,25.8,"12:59:12",1
"23/09/14","13:10",0.0,30.9,65.2,1006.9,343.9,1.3,2.7,320.8,0.19,23.6,25.8,"13:07:52",1
"23/09/14","13:20",0.0,30.9,65.9,1006.9,317.7,1.1,2.0,311.2,0.20,23.8,25.8,"13:10:32",1
"23/09/14","13:30",0.0,31.7,64.6,1007.1,337.3,1.3,2.7,338.0,0.43,24.2,25.9,"13:21:12",1
"23/09/14","13:40",0.0,32.6,63.6,1007.4,189.9,1.1,2.9,345.9,0.33,24.8,26.0,"13:30:08",1
"23/09/14","13:50",0.0,32.1,61.6,1007.6,345.0,0.8,2.1,341.8,0.17,23.8,25.8,"13:48:56",1
"23/09/14","14:00",0.0,31.7,62.0,1007.4,0.2,0.7,1.8,12.8,0.13,23.6,25.7,"13:59:52",1
"23/09/14","14:10",0.0,31.8,62.2,1007.4,41.7,1.0,2.4,354.3,0.17,23.7,26.1,"14:04:32",1
"23/09/14","14:20",0.0,32.1,62.1,1007.1,40.8,0.6,1.7,6.4,0.19,24.0,26.1,"14:16:00",1
"23/09/14","14:30",0.0,32.0,61.7,1006.7,332.9,1.0,2.0,353.2,0.16,23.8,26.2,"14:23:44",1
"23/09/14","14:40",0.0,31.8,63.5,1007.1,306.1,0.8,2.7,350.2,0.15,24.1,25.8,"14:31:20",1
"23/09/14","14:50",0.0,31.8,63.2,1006.4,255.3,0.7,1.8,228.7,0.14,24.0,26.2,"14:45:44",1
"23/09/14","15:00",0.0,32.2,62.9,1006.7,309.3,0.8,2.7,341.5,0.25,24.3,26.3,"14:50:48",1
"23/09/14","15:10",0.0,33.4,59.7,1006.9,263.8,0.8,2.5,305.2,0.39,24.5,26.2,"15:01:20",1
"23/09/14","15:20",0.0,33.9,57.8,1007.6,318.3,0.8,2.9,234.5,0.30,24.5,26.3,"15:10:40",1
"23/09/14","15:30",0.0,33.3,56.4,1007.4,174.4,0.7,1.8,210.8,0.14,23.5,26.2,"15:25:12",1
"23/09/14","15:40",0.0,32.3,59.4,1006.9,229.2,0.6,2.7,195.2,0.06,23.4,26.5,"15:35:20",1
"23/09/14","15:50",0.0,31.8,61.3,1007.1,241.3,0.5,1.3,213.9,0.06,23.5,26.4,"15:44:32",1
"23/09/14","16:00",0.0,31.6,61.4,1006.4,263.4,0.6,2.0,240.9,0.07,23.3,26.2,"15:59:04",1
"23/09/14","16:10",0.0,31.5,62.8,1006.2,245.1,1.0,2.6,239.1,0.07,23.6,26.6,"16:03:20",1
"23/09/14","16:20",0.0,31.3,63.0,1006.2,230.8,0.6,1.7,236.5,0.07,23.5,26.4,"16:17:04",1
"23/09/14","16:30",0.0,31.2,63.4,1006.0,309.1,0.5,1.3,357.6,0.04,23.5,26.4,"16:21:44",1
"23/09/14","16:40",0.0,31.2,65.1,1005.5,301.2,0.6,1.2,350.5,0.04,23.9,26.4,"16:35:52",1
"23/09/14","16:50",0.0,30.8,65.1,1005.5,288.3,1.1,2.5,234.6,0.04,23.5,26.4,"16:48:56",1
"23/09/14","17:00",0.0,30.8,64.2,1005.2,290.6,1.1,2.5,325.7,0.04,23.3,26.3,"16:51:20",1
"23/09/14","17:10",0.0,30.9,64.4,1005.5,284.8,0.8,2.1,254.5,0.03,23.4,26.4,"17:03:36",1
"23/09/14","17:20",0.0,30.7,66.3,1005.2,332.1,1.2,2.7,349.6,0.03,23.7,26.5,"17:16:56",1
"23/09/14","17:30",0.0,30.3,67.2,1005.2,310.5,0.8,2.9,352.1,0.02,23.6,26.4,"17:23:44",1
"23/09/14","17:40",0.0,30.2,67.8,1005.2,314.5,1.0,2.9,338.8,0.01,23.6,26.4,"17:36:32",1
"23/09/14","17:50",0.0,30.0,68.4,1005.2,338.6,0.7,2.6,352.8,0.00,23.6,26.4,"17:41:44",1
"23/09/14","18:00",0.0,29.7,69.0,1005.0,341.4,0.8,2.2,348.8,0.00,23.4,26.4,"17:55:36",1
"23/09/14","18:10",0.0,29.6,70.2,1005.2,337.7,1.0,2.1,348.0,0.00,23.6,26.4,"18:03:36",1
"23/09/14","18:20",0.0,29.1,72.3,1004.5,351.9,1.1,2.1,351.6,0.00,23.6,26.3,"18:10:40",1
"23/09/14","18:30",0.0,28.8,73.8,1005.5,357.5,0.7,1.2,326.1,0.00,23.7,26.4,"18:28:48",1
"23/09/14","18:40",0.0,28.4,75.0,1005.5,339.0,0.3,1.1,270.1,0.00,23.6,26.4,"18:31:52",1
"23/09/14","18:50",0.0,28.2,76.4,1005.5,331.1,0.6,0.9,343.9,0.00,23.7,26.1,"18:45:04",1
"23/09/14","19:00",0.0,28.0,78.0,1006.2,307.3,0.7,2.0,341.1,0.00,23.8,26.5,"18:57:12",1
"23/09/14","19:10",0.0,27.8,78.9,1006.4,305.2,0.8,1.8,326.3,0.00,23.8,26.2,"19:04:00",1
"23/09/14","19:20",0.0,27.6,79.3,1006.7,298.5,0.8,1.6,267.7,0.00,23.7,26.1,"19:16:08",1
"23/09/14","19:30",0.0,27.5,79.7,1006.7,328.2,1.0,1.7,310.1,0.00,23.7,26.3,"19:21:12",1
"23/09/14","19:40",0.0,27.3,80.1,1006.4,310.4,0.8,1.6,300.8,0.00,23.6,26.3,"19:30:24",1
"23/09/14","19:50",0.0,27.3,80.9,1006.9,333.1,1.2,1.9,340.6,0.00,23.8,26.2,"19:46:00",1
"23/09/14","20:00",0.0,27.2,81.5,1007.1,326.2,0.8,1.8,324.6,0.00,23.8,26.1,"19:54:40",1
"23/09/14","20:10",0.0,27.1,82.0,1007.4,315.2,0.6,1.2,318.3,0.00,23.8,26.2,"20:06:08",1
"23/09/14","20:20",0.0,26.9,82.6,1007.4,286.5,0.2,0.6,326.2,0.00,23.7,25.8,"20:10:24",1
"23/09/14","20:30",0.0,26.8,83.2,1007.4,322.1,0.8,1.6,342.8,0.00,23.7,26.0,"20:22:32",1
"23/09/14","20:40",0.0,26.8,83.7,1007.6,325.1,1.0,2.0,328.9,0.00,23.8,26.0,"20:35:36",1
"23/09/14","20:50",0.0,26.7,84.0,1007.8,324.7,0.7,1.2,322.6,0.00,23.8,25.9,"20:42:00",1
"23/09/14","21:00",0.0,26.6,84.3,1007.6,353.9,0.2,1.3,323.4,0.00,23.8,26.0,"20:50:48",1
"23/09/14","21:10",0.0,26.5,84.7,1007.8,304.5,0.7,1.1,290.1,0.00,23.8,26.0,"21:06:32",1
"23/09/14","21:20",0.0,26.4,84.9,1007.8,313.5,1.0,1.4,311.2,0.00,23.7,26.0,"21:15:12",1
"23/09/14","21:30",0.0,26.4,85.1,1007.8,342.9,0.6,1.8,357.5,0.00,23.7,26.0,"21:20:02",1
"23/09/14","21:40",0.0,26.4,85.3,1007.8,343.0,0.8,1.2,347.8,0.00,23.8,25.9,"21:32:32",1
"23/09/14","21:50",0.0,26.2,85.8,1008.1,277.1,0.2,0.9,333.2,0.00,23.7,25.9,"21:40:08",1
"23/09/14","22:00",0.0,26.0,86.1,1008.1,308.7,0.5,1.2,337.5,0.00,23.5,26.0,"21:58:00",1
"23/09/14","22:10",0.0,26.1,86.3,1008.1,333.9,1.2,2.1,336.8,0.00,23.7,26.0,"22:06:16",1
"23/09/14","22:20",0.0,26.2,86.1,1008.1,327.0,1.2,2.0,328.2,0.00,23.7,26.1,"22:14:40",1
"23/09/14","22:30",0.0,26.3,85.7,1008.1,309.3,1.1,1.6,325.3,0.00,23.8,25.8,"22:21:04",1
"23/09/14","22:40",0.0,26.3,85.5,1007.8,316.0,0.7,1.2,292.0,0.00,23.7,25.7,"22:30:16",1
"23/09/14","22:50",0.0,26.2,85.4,1007.8,335.4,0.6,1.2,22.2,0.00,23.6,25.8,"22:43:20",1
"23/09/14","23:00",0.0,26.0,85.7,1008.1,299.2,0.7,0.9,311.3,0.00,23.5,25.7,"22:51:36",1
"23/09/14","23:10",0.0,25.8,86.0,1008.1,310.9,0.6,1.1,321.6,0.00,23.3,25.7,"23:05:04",1
"23/09/14","23:20",0.0,25.8,86.4,1008.1,316.4,0.8,1.4,347.0,0.00,23.4,25.8,"23:11:44",1
"23/09/14","23:30",0.0,25.8,86.6,1008.1,332.6,0.6,0.9,319.3,0.00,23.4,25.7,"23:20:32",1
"23/09/14","23:40",0.0,25.5,86.8,1008.1,300.9,0.5,0.9,341.3,0.00,23.2,25.8,"23:38:56",1
"23/09/14","23:50",0.0,25.4,87.1,1008.3,310.9,0.6,0.9,302.3,0.00,23.1,25.8,"23:42:16",1
"23/09/14","24:00",0.0,25.5,87.6,1007.8,332.4,0.8,1.7,347.9,0.00,23.3,25.7,"23:55:28",1
